Weather History for Baker, OR

Change the Weather History Date:

Wednesday, June 19, 2013

  Actual Average Record
Temperature  
Mean Temperature 46 °F 59 °F  
Max Temperature 51 °F 75 °F 96 °F (1959)
Min Temperature 40 °F 43 °F 27 °F (1996)
Degree Days  
Heating Degree Days 19 7  
Month to date heating degree days 129 164  
Since 1 June heating degree days 129 164  
Since 1 July heating degree days 7428 7611  
Cooling Degree Days 0 1  
Month to date cooling degree days 1 4  
Year to date cooling degree days 5 6  
Since 1 June cooling degree days 1 4  
Moisture  
Dew Point 42 °F    
Average Humidity 87    
Maximum Humidity 100    
Minimum Humidity 74    
Precipitation  
Precipitation 1.57 in 0.04 in 1.57 in (2013)
Month to date precipitation 1.57 0.83  
Year to date precipitation 5.02 5.36  
Sea Level Pressure  
Sea Level Pressure 29.89 in    
Wind  
Wind Speed 7 mph (NNW)    
Max Wind Speed 16 mph    
Max Gust Speed 21 mph    
Visibility 8 miles    
Events Rain    
T = Trace of Precipitation, MM = Missing Value Source: NWS Daily Summary

Daily Weather History Graph

Daily Weather History Graph

Search for Another Location

Airport:

Trip Planner

Search our weather history database for the weather conditions in past years. The results will help you decide how hot, cold, wet, or windy it might be!

Date:

Astronomy

Jun. 19, 2013 Rise Set
Actual Time 5:04 AM PDT 8:40 PM PDT
Civil Twilight 4:27 AM PDT 9:17 PM PDT
Nautical Twilight 3:38 AM PDT 10:07 PM PDT
Astronomical Twilight 2:32 AM PDT 11:12 PM PDT
Moon 4:32 PM PDT (6/19) 2:01 AM PDT (6/19)
Length of Visible Light 16h 50m
Length of Day
15h 35m
Waxing Gibbous, 81% of the Moon is Illuminated
Jun 19
Waxing Gibbous
Jun 23
Full
Jun 29
Last Quarter
Jul 8
New
Jul 15
First Quarter

Hourly Weather History & Observations

Time (PDT) Temp. Windchill Dew Point Humidity Pressure Visibility Wind Dir Wind Speed Gust Speed Precip Events Conditions
12:53 AM 50.0 °F - 43.0 °F 77% 29.80 in 10.0 mi NNW 11.5 mph - N/A   Overcast
1:53 AM 48.9 °F - 43.0 °F 80% 29.77 in 10.0 mi WNW 13.8 mph - N/A   Overcast
2:53 AM 50.0 °F - 43.0 °F 77% 29.78 in 10.0 mi NNW 12.7 mph - N/A   Overcast
3:04 AM 51.8 °F - 42.8 °F 71% 29.80 in 10.0 mi NNW 12.7 mph - N/A   Overcast
3:25 AM 50.0 °F - 42.8 °F 76% 29.80 in 10.0 mi NW 11.5 mph - N/A   Overcast
3:53 AM 48.9 °F - 44.1 °F 83% 29.77 in 10.0 mi WNW 12.7 mph - N/A   Overcast
4:41 AM 48.2 °F - 44.6 °F 87% 29.80 in 10.0 mi NNW 8.1 mph - N/A   Overcast
4:51 AM 48.2 °F - 44.6 °F 87% 29.80 in 10.0 mi NW 6.9 mph - N/A   Overcast
4:53 AM 48.9 °F - 43.0 °F 80% 29.78 in 10.0 mi NW 9.2 mph - N/A   Overcast
5:14 AM 48.2 °F - 44.6 °F 87% 29.79 in 10.0 mi NW 6.9 mph - 0.00 in Rain Light Rain
5:37 AM 46.4 °F 42.4 °F 44.6 °F 93% 29.79 in 10.0 mi NW 8.1 mph - 0.00 in Rain Light Rain
5:53 AM 46.9 °F - 44.1 °F 90% 29.78 in 7.0 mi NNW 4.6 mph - 0.01 in Rain Light Rain
6:53 AM 46.0 °F 41.0 °F 44.1 °F 93% 29.79 in 10.0 mi NNW 10.4 mph 19.6 mph 0.01 in   Overcast
7:50 AM 46.4 °F 43.5 °F 44.6 °F 93% 29.82 in 10.0 mi WSW 5.8 mph - 0.02 in Rain Light Rain
7:53 AM 46.0 °F 42.5 °F 44.1 °F 93% 29.82 in 9.0 mi WSW 6.9 mph - 0.02 in Rain Light Rain
8:14 AM 46.4 °F 41.5 °F 44.6 °F 93% 29.82 in 4.0 mi West 10.4 mph - 0.02 in Rain Rain
8:27 AM 46.4 °F 41.9 °F 44.6 °F 93% 29.82 in 4.0 mi WNW 9.2 mph - 0.06 in Rain Rain
8:53 AM 45.0 °F 40.6 °F 44.1 °F 97% 29.83 in 5.0 mi WNW 8.1 mph - 0.10 in Rain Rain
9:08 AM 44.6 °F 42.2 °F 44.6 °F 100% 29.84 in 4.0 mi West 4.6 mph - 0.04 in Rain Rain
9:26 AM 44.6 °F 40.7 °F 44.6 °F 100% 29.84 in 3.0 mi WNW 6.9 mph - 0.09 in Rain Rain
9:40 AM 44.6 °F 40.2 °F 44.6 °F 100% 29.85 in 2.5 mi NW 8.1 mph - 0.14 in Rain Heavy Rain
9:53 AM 43.0 °F 38.8 °F 43.0 °F 100% 29.86 in 3.0 mi WNW 6.9 mph - 0.18 in Rain Rain
10:38 AM 42.8 °F 40.1 °F 42.8 °F 100% 29.87 in 2.5 mi NNW 4.6 mph - 0.17 in Rain Heavy Rain
10:53 AM 42.1 °F - 42.1 °F 100% 29.89 in 2.0 mi Calm Calm - 0.27 in Rain Heavy Rain
11:19 AM 42.8 °F - 42.8 °F 100% 29.89 in 3.0 mi Calm Calm - 0.14 in Rain Rain
11:29 AM 42.8 °F - 42.8 °F 100% 29.90 in 2.0 mi Calm Calm - 0.21 in Rain Heavy Rain
11:53 AM 42.1 °F 40.2 °F 42.1 °F 100% 29.93 in 2.5 mi NW 3.5 mph - 0.35 in Rain Heavy Rain
12:27 PM 41.0 °F 38.0 °F 41.0 °F 100% 29.93 in 3.0 mi NNE 4.6 mph - 0.16 in Rain Heavy Rain
12:53 PM 41.0 °F 34.7 °F 41.0 °F 100% 29.96 in 4.0 mi North 10.4 mph - 0.25 in Rain Heavy Rain
1:53 PM 41.0 °F 35.8 °F 39.9 °F 96% 29.96 in 7.0 mi North 8.1 mph - 0.21 in Rain Rain
2:53 PM 39.9 °F 37.8 °F 39.0 °F 97% 29.98 in 10.0 mi NNE 3.5 mph - 0.05 in Rain Light Rain
3:21 PM 41.0 °F 38.0 °F 39.2 °F 93% 29.98 in 10.0 mi East 4.6 mph - 0.02 in Rain Light Rain
3:40 PM 41.0 °F 35.8 °F 39.2 °F 93% 29.98 in 9.0 mi ENE 8.1 mph - 0.03 in Rain Light Rain
3:53 PM 41.0 °F 36.4 °F 39.0 °F 93% 30.00 in 7.0 mi NE 6.9 mph - 0.05 in Rain Rain
4:53 PM 42.1 °F 36.6 °F 41.0 °F 96% 30.01 in 10.0 mi East 9.2 mph - 0.07 in Rain Light Rain
5:53 PM 42.1 °F 36.6 °F 41.0 °F 96% 30.02 in 10.0 mi ENE 9.2 mph - 0.00 in   Overcast
6:53 PM 42.1 °F 37.1 °F 39.9 °F 92% 30.02 in 10.0 mi ESE 8.1 mph - N/A   Overcast
7:53 PM 42.1 °F 37.1 °F 39.9 °F 92% 30.03 in 10.0 mi East 8.1 mph - N/A   Overcast
8:53 PM 42.1 °F 39.2 °F 39.9 °F 92% 30.04 in 10.0 mi East 4.6 mph - N/A   Overcast
9:53 PM 42.1 °F - 41.0 °F 96% 30.04 in 10.0 mi Calm Calm - N/A   Overcast
10:53 PM 42.1 °F 38.4 °F 41.0 °F 96% 30.04 in 10.0 mi WNW 5.8 mph - N/A   Overcast
11:53 PM 41.0 °F 38.0 °F 39.9 °F 96% 30.05 in 10.0 mi North 4.6 mph - N/A   Overcast